Regional Weather Roundup
Issued by NWS Charleston, SC

Current Version | Previous Version | Graphics & Text | Print | Product List | Glossary On
Versions: 1 2 3 4 5 6 7 8 9 10 11 12 13 14 15 16 17 18 19 20 21 22 23 24 25 26 27 28 29 30 31 32 33 34 35 36 37 38 39 40 41 42 43 44 45 46 47 48 49 50
000
ASUS42 KCHS 131027
RWRCHS

REGIONAL WEATHER ROUNDUP
NATIONAL WEATHER SERVICE CHARLESTON SC
500 AM EST WED DEC 13 2017

NOTE: "FAIR" INDICATES FEW OR NO CLOUDS BELOW 12,000 FEET WITH NO
SIGNIFICANT WEATHER AND/OR OBSTRUCTIONS TO VISIBILITY.

NOT ALL STATIONS ARE QUALITY CONTROLLED. USE DATA WITH CAUTION...
ESPECIALLY DEWPOINT OBSERVATIONS.

SCZ027-030-031-034>040-042>050-131100-
...SOUTHEAST SOUTH CAROLINA...

CITY           SKY/WX    TMP DP  RH WIND       PRES   REMARKS
N CHARLESTON   CLEAR     35  24  64 NW7       29.96R WCI  29
WATERFRONT PRK   N/A     40  28  62 NW6       29.80S WCI  36
JOHNS ISLAND   FAIR      36  23  60 W7        29.98R WCI  30
PINOPOLIS        N/A     39  28  65 NW13      29.88R WCI  32
MONCKS CORNER  FAIR      34  23  64 CALM      29.97R
SUMMERVILLE    FAIR      34  27  75 NW3       29.98R
BEAUFORT MCAS  CLEAR     38  27  64 W7        29.99R WCI  33
BEAUFORT ARPT  FAIR      37  25  60 NW14      29.99R HAZE    WCI  29
HILTON HEAD IS NOT AVBL
WALTERBORO     SUNNY     32  23  69 W6        29.99R WCI  26
ALLENDALE      FAIR      34  21  60 CALM      29.98S

...SOUTHERN MIDLANDS AND PEE DEE...

CITY           SKY/WX    TMP DP  RH WIND       PRES   REMARKS
GEORGETOWN     FAIR      34  19  55 NW5       29.97R WCI  30
KINGSTREE      FAIR      32  18  55 CALM      29.97R
ORANGEBURG     CLEAR     33  20  58 NW5       29.97R WCI  29
BARNWELL         N/A     34  19  55 W3        29.99R
AIKEN          FAIR      30  18  59 W5        30.00R WCI  25
MANNING        FAIR      28  23  80 MISG      29.97S
COLUMBIA       CLEAR     33  22  63 W6        29.96R WCI  28
SUMTER         CLEAR     33  10  38 NW7       29.94R WCI  26
FLORENCE       CLEAR     30  19  63 N5        29.96R WCI  25
MYRTLE BEACH   CLEAR     33  20  58 NW6       29.96R WCI  28
N MYRTLE BEACH CLEAR     32  19  58 NW6       29.94R WCI  26

$$

GAZ063-065-086>088-099>101-113>116-118-119-134>141-150-131100-
...SOUTHEAST GEORGIA...

CITY           SKY/WX    TMP DP  RH WIND       PRES   REMARKS
SAVANNAH ARPT  CLEAR     37  28  70 NW9       30.00R WCI  30
HUNTER AAF     CLEAR     39  26  59 NW7       29.97R WCI  34
FORT STEWART   CLEAR     39  23  52 NW9       29.98R WCI  33
STATESBORO     CLEAR     36  17  44 NW8       30.01R WCI  30
SYLVANIA       SUNNY     36  24  60 NW7       30.01R WCI  31
CLAXTON        FAIR      39  22  51 W12       30.02R WCI  31

...CSRA...CENTRAL AND FAR SOUTHEAST GEORGIA...

CITY           SKY/WX    TMP DP  RH WIND       PRES   REMARKS
THOMSON        CLEAR     32  11  42 NW7       30.04S WCI  25
AUGUSTA-BUSH   CLEAR     35  15  44 NW10      30.00R WCI  27
AUGUSTA-DANIEL CLEAR     35  14  42 NW7       29.99R WCI  29
SWAINSBORO     FAIR      34  23  64 NW7       30.03R WCI  28
VIDALIA        CLEAR     37  27  65 NW8       30.02S WCI  31
EASTMAN        FAIR      36  13  38 CALM      30.08R
HAZLEHURST     FAIR      39  13  35 NW5       30.02S WCI  35
ALMA           PTCLDY    40  29  64 NW10      30.02S WCI  33
WAYCROSS       PTCLDY    39  26  60 N8        30.03S WCI  34
JESUP          FAIR      43  27  52 NW7       30.02R
BAXLEY         FAIR      36  25  64 NW7       30.03R WCI  30
BRUNSWICK      CLEAR     37  30  75 W5        30.02R WCI  34
SAINT SIMONS   CLEAR     42  31  64 W9        30.00R

$$

SCZ027-028-034-036>038-045-046-048>050-GAZ119-141-131100-
...LAKE AND SUPPLEMENTAL COASTAL OBSERVATIONS...

STATION/POSITION TIME  TEMP    WIND        PRES    WAVE   SWELL
                       AIR SEA DIR/SP/G            HT/PER HT/PER/DIR
                 (UTC) (F)     (DEG/KT/KT) (MB)    (FT/S) (FT/S/D)
WINYAH BAY       0945   35     300/  3     1014.0R
LAKE MURRAY      0950   34     300/  1/  7 1013.9R
ACE BASIN NERRS  0945   37     270/  2     1015.0R
FORT PULASKI     1000   40 54  320/ 12/ 14 1015.8
SAPELO ISLAND    NOT AVBL

$$

ANZ835-935-AMZ111-154-330-350-352-354-370-450-454-472-131100-
...C-MAN AND BUOY OBSERVATIONS...

STATION/POSITION TIME  TEMP    WIND        PRES    WAVE   SWELL
                       AIR SEA DIR/SP/G            HT/PER HT/PER/DIR
                 (UTC) (F)     (DEG/KT/KT) (MB)    (FT/S) (FT/S/D)
BUOY 41004       1010   47 74  330/ 17/ 23 1013.3
BUOY 41008       0950   49 60  310/ 25/ 31 1014.4R   4/ 5
FOLLY BEACH CMAN 1000   39     310/  7/ 11 1014.9R
CAPERS NEARSHORE 0908   40 56  320/ 16/ 21 1013.4R
FRIPP NEARSHORE  0908   41 57  290/ 19/ 31 1014.0F


STATION/POSITION TIME  TEMP    WIND        PRES    WAVE   SWELL
                       AIR SEA DIR/SP/G            HT/PER HT/PER/DIR
                 (UTC) (F)     (DEG/KT/KT) (MB)    (FT/S) (FT/S/D)
5E ST. MARYS GA  0930      62                N/A     3/ 4
FRYING PAN BUOY  1010   41 63  330/ 23/ 29 1012.7
BUOY 41025       1010   38 74  310/ 29/ 39 1010.6
CAPE LOOKOUT NC  1000          320/ 20/ 27 1012.6R
BUOY 41002       0950   61 75  310/ 27/ 33 1007.1R  14/11   7/290/11
BUOY 41010       NOT AVBL
ST AUGUSTINE FL  1000   46 60  310/  7/ 11 1016.9R


$$




USA.gov is the U.S. government's official web portal to all federal, state and local government web resources and services.